Location: Marne
(34.0056°N, 117.9064°W)
Time: 18:42:13
(UTC+00:00)

Cosmos 1758 Rocket - Pass Details

Date: 18 January 2020
Orbit: 603 x 635 km, 82.5° (Epoch: 26 February)

Event Time Altitude Azimuth Distance (km) Brightness Sun altitude
Rises 01:51:32 0° 161° (SSE) 2,854 7.0 -9.4°
Reaches altitude 10° 01:53:57 10° 150° (SSE) 1,950 6.0 -9.8°
Maximum altitude 01:57:40 29° 90° (E) 1,124 4.4 -10.6°
Drops below altitude 10° 02:01:23 10° 31° (NNE) 1,953 5.7 -11.3°
Enters shadow 02:02:19 - 26° (NNE) 2,290 6.1 -11.5°
